• în Republica Moldova
  • Lista ţărilor
  • Pe 7 zile
  • Temperatura apei
  • Hartă satelitară
  • Meteo pe hartă
  • Widget-uri
  • user-avatar
    Intrare

    Meteo pe oră la Luschihino

    Astăzi, 22 Februarie, Vineri

    Timp Temperatura Precipitaţii Vânt Presiune Umiditate
    00:00 -13°C° 0 mm 5 m/s 740 mmHg 77%
    01:00 -14°C° 0 mm 6 m/s 741 mmHg 77%
    02:00 -14°C° 0 mm 5 m/s 741 mmHg 77%
    03:00 -15°C° 0.1 mm 6 m/s 741 mmHg 78%
    04:00 -14°C° 0.1 mm 6 m/s 742 mmHg 80%
    05:00 -14°C° 0.1 mm 6 m/s 742 mmHg 81%
    06:00 -14°C° 0.2 mm 6 m/s 742 mmHg 80%
    07:00 -14°C° 0.2 mm 7 m/s 743 mmHg 79%
    08:00 -14°C° 0 mm 7 m/s 744 mmHg 78%
    09:00 -14°C° 0.1 mm 7 m/s 744 mmHg 76%
    10:00 -13°C° 0.1 mm 7 m/s 745 mmHg 75%
    11:00 -13°C° 0.1 mm 7 m/s 746 mmHg 73%
    12:00 -13°C° 0 mm 7 m/s 747 mmHg 72%
    13:00 -12°C° 0 mm 7 m/s 747 mmHg 71%
    14:00 -11°C° 0 mm 6 m/s 748 mmHg 71%
    15:00 -11°C° 0 mm 6 m/s 749 mmHg 72%
    16:00 -11°C° 0 mm 6 m/s 749 mmHg 73%
    17:00 -11°C° 0 mm 6 m/s 750 mmHg 74%
    18:00 -11°C° 0 mm 6 m/s 751 mmHg 75%
    19:00 -11°C° 0 mm 5 m/s 752 mmHg 77%
    20:00 -11°C° 0 mm 5 m/s 753 mmHg 79%
    21:00 -12°C° 0 mm 5 m/s 753 mmHg 81%
    22:00 -12°C° 0 mm 4 m/s 754 mmHg 84%
    23:00 -12°C° 0 mm 4 m/s 755 mmHg 87%

    Mâine, 23 Februarie, Sâmbătă

    Timp Temperatura Precipitaţii Vânt Presiune Umiditate
    00:00 -13°C° 0 mm 3 m/s 755 mmHg 87%
    01:00 -14°C° 0 mm 3 m/s 755 mmHg 88%
    02:00 -14°C° 0 mm 3 m/s 756 mmHg 88%
    03:00 -15°C° 0 mm 3 m/s 756 mmHg 89%
    04:00 -14°C° 0 mm 2 m/s 756 mmHg 90%
    05:00 -14°C° 0 mm 2 m/s 757 mmHg 91%
    06:00 -14°C° 0 mm 2 m/s 757 mmHg 90%
    07:00 -13°C° 0 mm 2 m/s 757 mmHg 88%
    08:00 -12°C° 0 mm 2 m/s 757 mmHg 87%
    09:00 -10°C° 0 mm 2 m/s 756 mmHg 82%
    10:00 -9°C° 0 mm 2 m/s 756 mmHg 77%
    11:00 -8°C° 0 mm 3 m/s 756 mmHg 73%
    12:00 -8°C° 0 mm 3 m/s 755 mmHg 71%
    13:00 -8°C° 0 mm 4 m/s 754 mmHg 69%
    14:00 -8°C° 0 mm 4 m/s 754 mmHg 68%
    15:00 -8°C° 0.3 mm 5 m/s 753 mmHg 75%
    16:00 -8°C° 0.3 mm 5 m/s 752 mmHg 83%
    17:00 -10°C° 0.3 mm 5 m/s 752 mmHg 91%
    18:00 -8°C° 0.7 mm 5 m/s 751 mmHg 91%
    19:00 -8°C° 0.7 mm 5 m/s 750 mmHg 91%
    20:00 -8°C° 0.7 mm 5 m/s 750 mmHg 92%
    21:00 -7°C° 0.5 mm 4 m/s 749 mmHg 92%
    22:00 -7°C° 0.5 mm 4 m/s 749 mmHg 92%
    23:00 -5°C° 0.5 mm 4 m/s 749 mmHg 92%

    Poimâine, 24 Februarie, Duminică

    Timp Temperatura Precipitaţii Vânt Presiune Umiditate
    00:00 -4°C° 0.2 mm 4 m/s 748 mmHg 93%
    01:00 -2°C° 0.2 mm 3 m/s 748 mmHg 93%
    02:00 -1°C° 0.2 mm 3 m/s 748 mmHg 93%
    03:00 -1°C° 0.1 mm 3 m/s 748 mmHg 93%
    04:00 0°C° 0.1 mm 3 m/s 748 mmHg 94%
    05:00 0°C° 0.1 mm 3 m/s 748 mmHg 94%
    06:00 0°C° 0 mm 3 m/s 748 mmHg 94%
    07:00 0°C° 0 mm 3 m/s 748 mmHg 95%
    08:00 0°C° 0 mm 3 m/s 749 mmHg 95%
    09:00 0°C° 0 mm 3 m/s 749 mmHg 96%
    10:00 +1°C° 0 mm 3 m/s 749 mmHg 96%
    11:00 +1°C° 0 mm 3 m/s 749 mmHg 97%
    12:00 +1°C° 0 mm 3 m/s 749 mmHg 97%
    13:00 +1°C° 0 mm 3 m/s 749 mmHg 98%
    14:00 +1°C° 0 mm 3 m/s 749 mmHg 98%
    15:00 +1°C° 0 mm 3 m/s 749 mmHg 97%
    16:00 0°C° 0 mm 3 m/s 749 mmHg 96%
    17:00 0°C° 0 mm 3 m/s 749 mmHg 96%
    18:00 0°C° 0 mm 3 m/s 749 mmHg 95%
    19:00 0°C° 0 mm 3 m/s 748 mmHg 95%
    20:00 +1°C° 0 mm 2 m/s 748 mmHg 95%
    21:00 0°C° 0.2 mm 3 m/s 748 mmHg 95%
    22:00 0°C° 0.2 mm 3 m/s 747 mmHg 95%
    23:00 0°C° 0.2 mm 3 m/s 747 mmHg 96%

    25 Februarie, Luni

    Timp Temperatura Precipitaţii Vânt Presiune Umiditate
    00:00 -1°C° 0.1 mm 4 m/s 746 mmHg 95%
    01:00 -1°C° 0.1 mm 4 m/s 745 mmHg 94%
    02:00 -1°C° 0.1 mm 4 m/s 745 mmHg 93%
    03:00 -1°C° 0.1 mm 4 m/s 744 mmHg 92%
    04:00 -1°C° 0.1 mm 4 m/s 744 mmHg 91%
    05:00 -1°C° 0.1 mm 4 m/s 743 mmHg 90%
    06:00 -1°C° 0 mm 5 m/s 743 mmHg 90%
    07:00 -1°C° 0 mm 5 m/s 743 mmHg 90%
    08:00 0°C° 0 mm 5 m/s 743 mmHg 90%
    09:00 0°C° 0 mm 5 m/s 743 mmHg 89%
    10:00 0°C° 0 mm 5 m/s 743 mmHg 87%
    11:00 0°C° 0 mm 5 m/s 743 mmHg 86%
    12:00 -1°C° 0 mm 5 m/s 743 mmHg 86%
    13:00 -1°C° 0 mm 5 m/s 743 mmHg 85%
    14:00 -2°C° 0 mm 6 m/s 742 mmHg 85%
    15:00 -1°C° 0.1 mm 5 m/s 742 mmHg 85%
    16:00 -1°C° 0.1 mm 5 m/s 743 mmHg 84%
    17:00 -2°C° 0.1 mm 5 m/s 743 mmHg 84%
    18:00 -2°C° 0 mm 5 m/s 742 mmHg 84%
    19:00 -2°C° 0 mm 5 m/s 742 mmHg 84%
    20:00 -2°C° 0 mm 5 m/s 742 mmHg 84%
    21:00 -2°C° 0 mm 5 m/s 742 mmHg 84%
    22:00 -2°C° 0 mm 5 m/s 742 mmHg 84%
    23:00 -2°C° 0 mm 5 m/s 742 mmHg 84%

    26 Februarie, Marţi

    Timp Temperatura Precipitaţii Vânt Presiune Umiditate
    00:00 -2°C° 0 mm 5 m/s 742 mmHg 84%
    01:00 -2°C° 0 mm 5 m/s 742 mmHg 85%
    02:00 -2°C° 0 mm 5 m/s 742 mmHg 85%
    03:00 -2°C° 0 mm 4 m/s 742 mmHg 86%
    04:00 -3°C° 0 mm 4 m/s 741 mmHg 87%
    05:00 -2°C° 0 mm 3 m/s 741 mmHg 88%
    06:00 -2°C° 0 mm 3 m/s 741 mmHg 89%
    07:00 -2°C° 0 mm 3 m/s 740 mmHg 90%
    08:00 -2°C° 0 mm 3 m/s 740 mmHg 91%
    09:00 -2°C° 0.5 mm 3 m/s 739 mmHg 92%
    10:00 -2°C° 0.5 mm 3 m/s 738 mmHg 93%
    11:00 -2°C° 0.5 mm 3 m/s 737 mmHg 94%
    12:00 -1°C° 0.9 mm 3 m/s 736 mmHg 94%
    13:00 0°C° 0.9 mm 3 m/s 736 mmHg 93%
    14:00 -1°C° 0.9 mm 4 m/s 736 mmHg 92%
    15:00 -1°C° 0.2 mm 4 m/s 736 mmHg 91%
    16:00 0°C° 0.2 mm 5 m/s 736 mmHg 90%
    17:00 0°C° 0.2 mm 5 m/s 736 mmHg 88%
    18:00 -1°C° 0.2 mm 5 m/s 737 mmHg 88%
    19:00 -1°C° 0.2 mm 5 m/s 738 mmHg 88%
    20:00 -1°C° 0.2 mm 4 m/s 739 mmHg 87%
    21:00 -2°C° 0 mm 4 m/s 740 mmHg 87%
    22:00 -2°C° 0 mm 4 m/s 740 mmHg 88%
    23:00 -1°C° 0 mm 3 m/s 741 mmHg 88%

    27 Februarie, Miercuri

    Timp Temperatura Precipitaţii Vânt Presiune Umiditate
    00:00 -2°C° 0 mm 3 m/s 741 mmHg 88%
    01:00 -2°C° 0 mm 2 m/s 742 mmHg 88%
    02:00 -2°C° 0 mm 2 m/s 742 mmHg 89%
    03:00 -2°C° 0 mm 2 m/s 743 mmHg 89%
    04:00 -2°C° 0 mm 2 m/s 743 mmHg 90%
    05:00 -3°C° 0 mm 2 m/s 743 mmHg 90%
    06:00 -2°C° 0 mm 2 m/s 743 mmHg 91%
    07:00 -2°C° 0 mm 2 m/s 743 mmHg 91%
    08:00 -2°C° 0 mm 2 m/s 743 mmHg 91%
    09:00 -1°C° 0 mm 2 m/s 743 mmHg 92%
    10:00 -1°C° 0 mm 2 m/s 742 mmHg 93%
    11:00 0°C° 0 mm 3 m/s 742 mmHg 94%
    12:00 0°C° 0 mm 3 m/s 741 mmHg 92%
    13:00 0°C° 0 mm 3 m/s 740 mmHg 91%
    14:00 -1°C° 0 mm 4 m/s 739 mmHg 90%
    15:00 -1°C° 0 mm 4 m/s 738 mmHg 90%
    16:00 -1°C° 0 mm 4 m/s 736 mmHg 90%
    17:00 -1°C° 0 mm 4 m/s 735 mmHg 90%
    18:00 -2°C° 0.1 mm 4 m/s 733 mmHg 88%
    19:00 -2°C° 0.1 mm 5 m/s 732 mmHg 87%
    20:00 -2°C° 0.1 mm 5 m/s 731 mmHg 85%
    21:00 -1°C° 0.1 mm 5 m/s 729 mmHg 87%
    22:00 -1°C° 0.1 mm 5 m/s 728 mmHg 88%
    23:00 -1°C° 0.1 mm 5 m/s 727 mmHg 90%
    Arată mai mult